Вернуться в каталог

STARLINK-37817

АктивенСвязьSSO
NORAD 69480·PAYLOAD·🇺🇸 United States

Запущен Jun 11, 2026 с Vandenberg Space Force Base

Loading…

Ближайшие Пролёты (ближайшие 24 часа)

TLE

СвежийSource: CelesTrak SupGP

Эпоха: Sep 14, 2026, 22:53 UTC

1 69480C 26131C   26257.95395833  .00043799  00000+0  13596-2 0  2571
2 69480  97.2830 278.8449 0001544  87.0438 279.0135 15.33416898    10

Отслеживайте STARLINK-37817 в реальном времени с AllMySat

Download on the App Store